7L2IWN-13 Weather Reports


time (UTC)temp
C
wind
direction
speed
KPH
gust
KPH
rain 1hr
cm
rain 24hr
cm
rain mn
cm
humidity
%
barometer
mb
20260502123421 13 323 1.6 3.2 0.00 0.00 0.00 76 1011.1
20260502122221 14 190 1.6 3.2 0.00 0.00 0.00 75 1011.0
20260502121021 14 229 1.6 3.2 0.00 0.00 0.00 73 1011.1
20260502115821 14 272 3.2 4.8 0.00 0.00 0.00 73 1010.8
20260502114620 14 235 3.2 8.0 0.00 0.00 0.00 73 1011.0
20260502113420 15 268 3.2 4.8 0.00 0.00 0.00 71 1010.5
20260502112220 15 226 1.6 4.8 0.00 0.00 0.00 69 1010.5
20260502111021 15 260 1.6 3.2 0.00 0.00 0.00 69 1010.2
20260502105821 16 274 1.6 3.2 0.00 0.00 0.00 66 1010.1
20260502104620 16 260 1.6 3.2 0.00 0.00 0.00 65 1009.6
20260502103424 16 234 3.2 3.2 0.00 0.00 0.00 62 1009.4
20260502101020 17 228 3.2 8.0 0.00 0.00 0.00 63 1009.3
20260502091020 19 240 4.8 8.0 0.00 0.51 0.00 58 1008.5
20260502071020 23 52 19.3 25.7 0.00 0.51 0.00 34 1006.3
20260502065821 23 45 16.1 22.5 0.00 0.51 0.00 34 1006.2
20260502064621 25 53 22.5 29.0 0.00 0.51 0.00 33 1005.7
20260502063420 26 328 1.6 4.8 0.00 0.51 0.00 27 1005.7
20260502062221 25 345 9.7 14.5 0.00 0.51 0.00 28 1005.5
20260502061020 26 357 1.6 4.8 0.00 0.51 0.00 29 1005.2
20260502055820 26 27 4.8 20.9 0.00 0.51 0.00 28 1005.3
20260502054620 26 358 8.0 14.5 0.00 0.51 0.00 29 1005.2
20260502053420 26 319 1.6 8.0 0.00 0.51 0.00 27 1005.0
20260502052220 26 3 11.3 19.3 0.00 0.51 0.00 28 1005.0
20260502051021 25 43 1.6 11.3 0.00 0.51 0.00 29 1005.1
20260502044620 25 78 11.3 27.4 0.00 0.51 0.00 29 1004.9
20260502043420 25 352 14.5 24.1 0.00 0.51 0.00 28 1005.2
20260502042221 25 226 16.1 29.0 0.00 0.51 0.00 28 1005.0
20260502041021 25 22 3.2 8.0 0.00 0.51 0.00 27 1005.3
20260502035821 24 248 11.3 20.9 0.00 0.51 0.00 27 1005.0
20260502034620 24 302 25.7 41.8 0.00 0.51 0.00 28 1005.5
20260502033421 23 296 27.4 51.5 0.00 0.51 0.00 28 1005.5
20260502032221 23 332 19.3 32.2 0.00 0.51 0.00 30 1005.2
20260502031020 23 297 16.1 24.1 0.00 0.51 0.00 30 1005.2
20260502025820 23 300 25.7 46.7 0.00 0.51 0.00 31 1005.1
20260502024621 23 281 27.4 37.0 0.00 0.51 0.00 30 1005.1
20260502022222 23 305 32.2 41.8 0.00 0.61 0.00 33 1005.0
20260502021020 23 277 11.3 29.0 0.00 0.61 0.00 33 1004.4
20260502015819 23 278 16.1 40.2 0.00 0.61 0.00 34 1004.4
20260502013421 22 299 33.8 51.5 0.00 0.64 0.00 33 1003.8
20260502012220 22 320 35.4 59.5 0.00 0.71 0.00 33 1004.1
20260502011021 22 291 35.4 46.7 0.00 0.76 0.00 33 1003.8
20260502005820 22 284 29.0 38.6 0.00 0.79 0.00 33 1003.8
20260502004620 22 292 19.3 24.1 0.00 0.81 0.00 35 1003.6
20260502003422 21 304 19.3 22.5 0.00 0.86 0.00 35 1003.2
20260502002224 21 248 12.9 20.9 0.00 0.89 0.00 36 1003.0
20260502001021 21 320 33.8 49.9 0.00 0.91 0.00 37 1003.0
20260501235822 21 286 22.5 29.0 0.00 0.99 0.00 38 1002.7
20260501234622 20 12 11.3 19.3 0.00 1.09 0.00 39 1003.0
20260501233422 20 320 19.3 27.4 0.00 1.17 0.00 39 1002.8
20260501232221 20 258 16.1 25.7 0.00 1.27 0.00 40 1002.4
20260501231023 20 321 20.9 32.2 0.00 1.32 0.00 39 1002.5
20260501225822 19 251 20.9 32.2 0.00 1.47 0.00 41 1002.1
20260501224621 19 230 8.0 14.5 0.00 1.55 0.00 43 1001.9
20260501223421 19 301 12.9 16.1 0.00 1.60 0.00 44 1001.8
20260501221023 17 158 12.9 20.9 0.00 1.80 0.00 60 1000.9
20260501215822 16 312 9.7 19.3 0.00 1.85 0.00 57 1001.0
20260501214620 17 328 22.5 35.4 0.00 2.01 0.00 49 1000.8
20260501213424 14 304 9.7 19.3 0.00 2.18 0.00 78 1001.2
20260501212222 15 278 4.8 11.3 0.00 2.41 0.00 74 1000.8
20260501211021 15 272 4.8 9.7 0.00 2.54 0.00 76 1000.5
20260501205822 15 235 0.0 3.2 0.00 2.69 0.00 68 1000.6
20260501204622 15 309 12.9 16.1 0.00 2.69 0.00 61 999.8
20260501203422 13 331 9.7 16.1 0.00 2.72 0.00 75 1000.0
20260501202222 11 246 3.2 8.0 0.00 2.74 0.00 84 999.7
20260501201021 12 250 4.8 8.0 0.00 2.74 0.00 83 999.5
20260501195820 13 257 3.2 11.3 0.00 2.74 0.00 76 999.4
20260501194621 12 195 8.0 12.9 0.00 2.77 0.00 80 999.1
20260501193419 14 177 8.0 11.3 0.00 2.84 0.00 74 998.6
20260501192219 15 257 9.7 16.1 0.00 3.05 0.00 67 998.6
20260501191021 14 273 3.2 8.0 0.00 3.05 0.00 72 998.4
20260501185820 13 342 16.1 25.7 0.00 3.05 0.00 67 998.4
20260501184620 13 325 11.3 22.5 0.00 3.15 0.00 76 997.7
20260501183421 11 311 12.9 25.7 0.00 3.30 0.00 87 997.1
20260501182220 9 339 3.2 11.3 0.00 3.45 0.00 99 996.7
20260501181020 8 337 1.6 3.2 0.00 3.58 0.00 99 996.1
20260501175821 8 260 8.0 8.0 0.00 3.63 0.00 99 995.6
20260501173420 8 189 3.2 3.2 0.00 3.76 0.00 99 995.6
20260501172220 8 336 3.2 3.2 0.00 3.78 0.00 99 995.1
20260501171020 8 203 3.2 4.8 0.00 3.81 0.00 99 995.2
20260501165822 8 349 0.0 0.0 0.00 3.86 0.00 99 995.1
20260501164622 9 181 0.0 3.2 0.00 3.91 0.00 99 994.6
20260501163421 9 237 3.2 4.8 0.00 3.94 0.00 99 994.8
20260501162220 9 159 0.0 1.6 0.00 3.96 0.00 99 994.3
20260501161020 9 214 3.2 4.8 0.00 4.01 0.00 99 994.4
20260501155822 9 224 1.6 1.6 0.00 4.04 0.00 99 994.2
20260501154622 10 202 1.6 3.2 0.00 4.06 0.00 99 994.0
20260501152221 10 286 1.6 1.6 0.00 4.11 0.00 99 994.0
20260501151021 10 3 1.6 3.2 0.00 4.11 0.00 99 994.0
20260501145821 10 202 3.2 4.8 0.00 4.14 4.14 99 994.3
20260501144620 11 220 0.0 0.0 0.00 4.17 4.14 99 994.3